TimeEDT,TemperatureF,Dew PointF,Humidity,Sea Level PressureIn,VisibilityMPH,Wind Direction,Wind SpeedMPH,Gust SpeedMPH,PrecipitationIn,Events,Conditions,WindDirDegrees,DateUTC
12:53 AM,77.0,69.1,76,30.08,10.0,East,8.1,-,N/A,,Clear,80,2013-10-31 04:53:00
1:53 AM,79.0,69.1,72,30.06,10.0,ESE,13.8,21.9,N/A,,Scattered Clouds,110,2013-10-31 05:53:00
2:53 AM,79.0,69.1,72,30.05,10.0,East,10.4,-,N/A,,Partly Cloudy,100,2013-10-31 06:53:00
3:53 AM,79.0,70.0,74,30.03,10.0,East,13.8,-,N/A,,Partly Cloudy,100,2013-10-31 07:53:00
4:53 AM,79.0,70.0,74,30.04,10.0,East,10.4,-,N/A,,Partly Cloudy,90,2013-10-31 08:53:00
5:53 AM,78.1,69.1,74,30.05,10.0,East,10.4,-,N/A,,Clear,90,2013-10-31 09:53:00
6:53 AM,78.1,70.0,76,30.06,10.0,East,6.9,-,N/A,,Scattered Clouds,80,2013-10-31 10:53:00
7:53 AM,78.1,70.0,76,30.07,10.0,Variable,5.8,-,N/A,,Partly Cloudy,0,2013-10-31 11:53:00
8:53 AM,80.1,71.1,74,30.08,10.0,East,8.1,-,N/A,,Clear,90,2013-10-31 12:53:00
9:53 AM,82.0,72.0,71,30.09,10.0,East,13.8,-,N/A,,Partly Cloudy,100,2013-10-31 13:53:00
10:53 AM,82.9,72.0,69,30.10,10.0,ESE,13.8,-,N/A,,Partly Cloudy,110,2013-10-31 14:53:00
11:53 AM,82.9,72.0,69,30.09,10.0,East,15.0,23.0,N/A,,Clear,100,2013-10-31 15:53:00
12:53 PM,82.9,72.0,69,30.06,10.0,ESE,17.3,-,N/A,,Clear,110,2013-10-31 16:53:00
1:53 PM,84.0,72.0,67,30.03,10.0,ESE,17.3,-,N/A,,Partly Cloudy,110,2013-10-31 17:53:00
2:53 PM,84.0,72.0,67,30.01,10.0,ESE,12.7,-,N/A,,Clear,110,2013-10-31 18:53:00
3:53 PM,82.9,71.1,67,29.99,10.0,ESE,12.7,-,N/A,,Clear,110,2013-10-31 19:53:00
4:53 PM,82.0,71.1,69,29.98,10.0,ESE,15.0,-,N/A,,Partly Cloudy,110,2013-10-31 20:53:00
5:53 PM,81.0,71.1,72,29.99,10.0,ESE,13.8,23.0,N/A,,Clear,110,2013-10-31 21:53:00
6:53 PM,80.1,71.1,74,30.00,10.0,East,9.2,-,N/A,,Clear,100,2013-10-31 22:53:00
7:53 PM,80.1,71.1,74,30.00,10.0,ESE,10.4,-,N/A,,Partly Cloudy,110,2013-10-31 23:53:00
8:53 PM,80.1,71.1,74,30.01,10.0,ESE,11.5,-,N/A,,Partly Cloudy,120,2013-11-01 00:53:00
9:53 PM,79.0,71.1,77,30.02,10.0,ESE,10.4,-,N/A,,Partly Cloudy,110,2013-11-01 01:53:00
10:53 PM,79.0,71.1,77,30.01,10.0,ESE,11.5,-,N/A,,Partly Cloudy,120,2013-11-01 02:53:00
11:53 PM,79.0,71.1,77,30.01,10.0,ESE,10.4,-,N/A,,Clear,120,2013-11-01 03:53:00